Weather Roundup
Issued by NWS

Home | Current Version | Previous Version | Text Only | Print | Product List | Glossary On
Versions: 1 2 3 4 5 6 7 8 9 10 11 12 13 14 15 16 17 18 19 20 21 22 23 24 25 26 27 28 29 30 31 32 33 34 35 36 37 38 39 40 41 42 43 44 45 46 47 48 49 50
000
NZUS93 KARX 281510
HRRWXR

CURRENT HOURLY OBSERVATIONS ACROSS
MUCH OF THE UPPER MISSISSIPPI VALLEY
NATIONAL WEATHER SERVICE LA CROSSE WI
1000 AM CDT FRI JUL 28 2017


...SOUTHEAST MINNESOTA...


CITY           SKY/WX    TMP DP  RH WIND       PRES   REMARKS
ROCHESTER      SUNNY     73  67  81 NE7       30.10S
ROCHESTER/MAYO FAIR      74  64  70 N3        30.10S
WINONA         SUNNY     73  63  68 SE7       30.10R
AUSTIN         SUNNY     75  64  69 NE6       30.08S
ALBERT LEA     SUNNY     77  66  69 NE3       30.09S
DODGE CENTER   SUNNY     73  63  68 NE3       30.10S
PRESTON        SUNNY     71  63  76 CALM      30.10S
OWATONNA       SUNNY     75  64  69 E7        30.10R
FARIBAULT      SUNNY     73  64  73 N5        30.10S
$$

...ELSEWHERE IN MINNESOTA...


CITY           SKY/WX    TMP DP  RH WIND       PRES   REMARKS
MINNEAPOLIS    MOSUNNY   76  63  64 VRB5      30.10S
INTNL FALLS    SUNNY     76  62  62 W3        30.12S
DULUTH         SUNNY     71  59  65 SE6       30.15S
RED WING       SUNNY     75  63  64 E6        30.09R
REDWOOD FALLS  PTSUNNY   74  64  71 CALM      30.09F
MANKATO        CLOUDY    75  64  68 CALM      30.10S
WORTHINGTON    MOSUNNY   74  62  66 CALM      30.12S
FAIRMONT       MOSUNNY   76  66  71 NE3       30.10S HAZE
$$

...SOUTHWEST WISCONSIN...


CITY           SKY/WX    TMP DP  RH WIND       PRES   REMARKS
LA CROSSE      SUNNY     74  62  66 E5        30.09S
PRAIRIE DU CHI SUNNY     73  59  61 E5        30.07R
BOSCOBEL       SUNNY     74  59  59 NE6       30.07S
LONE ROCK      SUNNY     73  58  59 NE13      30.07S
PLATTEVILLE    SUNNY     72  63  72 NE12      30.07S
FORT MC COY    SUNNY     72  56  58 E6        30.11S
MAUSTON-NEW LI SUNNY     71  58  63 NE3       30.10S
VIROQUA        FAIR      70  61  73 NE6       30.10S
WIS DELLS      SUNNY     69  53  57 N5        30.09S
$$

...ELSEWHERE IN WISCONSIN...


CITY           SKY/WX    TMP DP  RH WIND       PRES   REMARKS
MILWAUKEE      PTSUNNY   70  64  81 N15G22    30.05R
MADISON        MOSUNNY   71  57  61 NE14      30.06S
GREEN BAY      SUNNY     70  63  78 NE8       30.08R
EAU CLAIRE     SUNNY     73  61  65 E7        30.11S
BLACK RVR FLS  FAIR      73  55  52 E7        30.11S
MEDFORD        SUNNY     69  53  57 N6        30.14S
WAUSAU         SUNNY     70  55  59 NE7       30.11R
WIS RAPIDS     SUNNY     73  54  51 NE10      30.12S
MARSHFIELD     SUNNY     70  54  56 NE8       30.12R
RICE LAKE      SUNNY     73  59  61 E5        30.15S
$$

...NORTHEAST IOWA...


CITY           SKY/WX    TMP DP  RH WIND       PRES   REMARKS
WATERLOO       SUNNY     73  60  63 E8        30.06S
DUBUQUE        SUNNY     71  59  65 NE10      30.07R
DECORAH        SUNNY     72  59  64 E7        30.08S
MASON CITY     SUNNY     75  66  73 NE5       30.09S
CHARLES CITY   SUNNY     73  63  68 S6        30.09S
OELWEIN        SUNNY     73  61  64 E6        30.08S
$$

...ELSEWHERE IN IOWA...


CITY           SKY/WX    TMP DP  RH WIND       PRES   REMARKS
DES MOINES     PTSUNNY   76  59  55 VRB3      30.05S
IOWA CITY      SUNNY     77  58  51 NE10      30.06R
FORT DODGE     MOSUNNY   75  64  69 CALM      30.09S
MARSHALLTOWN   SUNNY     76  61  59 E7        30.06S
CEDAR RAPIDS   SUNNY     73  61  64 E10       30.05S
$$

...NORTHERN ILLINOIS...


CITY           SKY/WX    TMP DP  RH WIND       PRES   REMARKS
CHICAGO-OHARE  PTSUNNY   75  62  64 N17G24    29.99S
CHICAGO-MIDWAY PTSUNNY   75  63  66 N14G21    29.98S
MOLINE         SUNNY     75  57  53 NE8       30.02S
ROCKFORD       MOSUNNY   76  57  51 NE12      30.04R
PEORIA         SUNNY     75  65  70 NE10      29.98R
$$

NOTE: "FAIR" INDICATES FEW OR NO CLOUDS BELOW 12,000 FEET WITH NO
SIGNIFICANT WEATHER AND/OR OBSTRUCTIONS TO VISIBILITY. WIND
SPEEDS ARE IN MILES-PER-HOUR.




USA.gov is the U.S. government's official web portal to all federal, state and local government web resources and services.